Terminal Aerodrome Forecast
Issued by NWS

Home | Current Version | Previous Version | Text Only | Print | Product List | Glossary On
Versions: 1 2 3 4 5 6 7 8 9 10 11 12 13 14 15 16 17
000
FTUS43 KAPX 190000 AAA
TAFAPN
TAF AMD
KAPN 190011Z 1900/1924 32010KT P6SM BKN035
     FM190200 33004KT P6SM SCT035
     FM191400 10010KT P6SM SCT100 BKN200=

USA.gov is the U.S. government's official web portal to all federal, state and local government web resources and services.